This is the latest recevied weather packets stored in our database for station/object KA1STV. If no packets are shown the sender has not sent any weather packets the latest 10 day(s).
| Time | Temp. | Humidity | Pressure | Rain* | Wind** | Luminosity | Snow |
|---|---|---|---|---|---|---|---|
| 1777838981 | 10° C | 44% | 1007.9 hPa | 0 mm | - | 135 W/m² | - |
| 1777838677 | 10° C | 44% | 1007.9 hPa | 0 mm | - | 108 W/m² | - |
| 1777838374 | 10.56° C | 43% | 1008.1 hPa | 0 mm | - | 132 W/m² | - |
| 1777838072 | 10.56° C | 44% | 1007.8 hPa | 0 mm | - | 140 W/m² | - |
| 1777837768 | 10.56° C | 44% | 1007.9 hPa | 0 mm | - | 163 W/m² | - |
| 1777837465 | 10.56° C | 45% | 1007.8 hPa | 0 mm | - | 180 W/m² | - |
| 1777837155 | 10.56° C | 42% | 1007.8 hPa | 0 mm | - | 282 W/m² | - |
| 1777836851 | 10.56° C | 45% | 1008.1 hPa | 0 mm | - | 256 W/m² | - |
| 1777836546 | 10.56° C | 43% | 1008.1 hPa | 0 mm | - | 206 W/m² | - |
| 1777836243 | 10.56° C | 44% | 1007.9 hPa | 0 mm | - | 217 W/m² | - |
| 1777835939 | 10° C | 42% | 1008.1 hPa | 0 mm | - | 203 W/m² | - |
| 1777835636 | 10° C | 43% | 1007.9 hPa | 0 mm | - | 210 W/m² | - |
| 1777835332 | 10° C | 42% | 1007.9 hPa | 0 mm | - | 229 W/m² | - |
| 1777835030 | 10.56° C | 42% | 1008 hPa | 0 mm | - | 221 W/m² | - |
| 1777834727 | 10.56° C | 44% | 1008 hPa | 0 mm | - | 378 W/m² | - |
| 1777834423 | 10° C | 43% | 1008.2 hPa | 0 mm | - | 304 W/m² | - |
| 1777834123 | 10° C | 44% | 1008 hPa | 0 mm | - | 201 W/m² | - |
| 1777833819 | 10° C | 45% | 1008.1 hPa | 0 mm | - | 189 W/m² | - |
| 1777833515 | 10° C | 45% | 1008 hPa | 0 mm | - | 178 W/m² | - |
| 1777833212 | 10° C | 44% | 1007.8 hPa | 0 mm | - | 199 W/m² | - |
| 1777832910 | 10° C | 44% | 1008.1 hPa | 0 mm | - | 272 W/m² | - |
| 1777832609 | 10° C | 46% | 1008 hPa | 0 mm | - | 220 W/m² | - |
| 1777832305 | 10.56° C | 44% | 1007.9 hPa | 0 mm | - | 205 W/m² | - |
| 1777832002 | 10.56° C | 43% | 1007.9 hPa | 0 mm | - | 225 W/m² | - |
| 1777831699 | 10.56° C | 42% | 1007.7 hPa | 0 mm | - | 183 W/m² | - |
* Rain latest hour (hover to see other rain measurements)
** Current wind speed in m/s (hover to see current wind gust speed)